This demonstration page uses our WeatherBlox Daily Observations layout. Learn more.

Left ArrowRight Arrow

39.51506, -84.39828

Hourly Observations for April 4, 2016

Temp ( °F °C ) Dew Point ( °F °C ) Humidity (%) Winds ( mph kmh ) Pressure ( in mb ) Visibility ( mi km ) Precip ( " mm )
12:15 am 00:15 Partly Cloudy 57 13.8 31 -0.4 38 38 SW 18 30 29.83 1010 10 16 N/A
12:35 am 00:35 Partly Cloudy 57 13.8 31 -0.5 38 38 SW 18 30 29.83 1010 10 16 N/A
12:55 am 00:55 Partly Cloudy 57 13.8 31 -0.6 37 37 SW 20 31 29.83 1010 10 16 N/A
1:15 am 01:15 Partly Cloudy 57 14.1 31 -0.4 37 37 SW 17 28 29.83 1010 10 16 N/A
1:35 am 01:35 Partly Cloudy 57 14.1 32 -0.2 38 38 SW 17 28 29.83 1010 10 16 N/A
1:55 am 01:55 Partly Cloudy 57 13.9 32 -0.2 38 38 SW 16 26 29.83 1010 10 16 N/A
2:15 am 02:15 Partly Cloudy 59 15.2 32 0.1 36 36 SW 17 28 29.83 1010 10 16 N/A
2:35 am 02:35 Clear 58 14.3 32 -0.1 38 38 SW 15 24 29.83 1010 10 16 N/A
2:55 am 02:55 Partly Cloudy 60 15.3 33 0.5 37 37 SW 15 24 29.83 1010 10 16 N/A
3:15 am 03:15 Partly Cloudy 60 15.3 32 0.2 36 36 SW 16 26 29.83 1010 10 16 N/A
3:35 am 03:35 Clear 60 15.3 33 0.8 38 38 SW 14 22 29.83 1010 10 16 N/A
3:55 am 03:55 Partly Cloudy 60 15.3 33 0.7 37 37 SW 15 24 29.80 1009 10 16 N/A
4:15 am 04:15 Partly Cloudy 60 15.3 34 0.9 38 38 SW 15 24 29.80 1009 10 16 N/A
4:35 am 04:35 Clear 60 15.3 33 0.7 37 37 SW 15 24 29.80 1009 10 16 N/A
4:55 am 04:55 Partly Cloudy 60 15.3 34 1 38 38 SW 14 22 29.80 1009 10 16 N/A
5:15 am 05:15 Clear 60 15.3 35 1.5 39 39 SW 10 17 29.80 1009 10 16 N/A
5:35 am 05:35 Clear 57 13.9 34 1 42 42 SW 10 17 29.80 1009 10 16 N/A
5:55 am 05:55 Clear 57 13.8 35 1.5 43 43 SW 10 17 29.80 1009 10 16 N/A
6:15 am 06:15 Clear 57 13.8 35 1.5 43 43 SW 10 17 29.80 1009 10 16 N/A
6:35 am 06:35 Partly Cloudy 57 13.8 35 1.5 43 43 SW 13 20 29.80 1009 10 16 N/A
6:55 am 06:55 Partly Cloudy 57 13.8 37 2.5 47 47 SW 9 15 29.83 1010 10 16 N/A
7:15 am 07:15 Partly Cloudy 57 13.9 36 2.1 45 45 SW 10 17 29.83 1010 10 16 N/A
7:35 am 07:35 Partly Cloudy 60 15.3 37 2.7 43 43 WSW 12 19 29.83 1010 10 16 N/A
7:55 am 07:55 Mostly Cloudy 60 15.3 36 2.2 41 41 WSW 16 26 29.83 1010 10 16 N/A
8:15 am 08:15 Mostly Cloudy with Light Rain 60 15.3 38 3.6 46 46 SW 12 19 29.83 1010 10 16 N/A
8:35 am 08:35 Mostly Cloudy 60 15.3 38 3.6 46 46 WSW 14 22 29.83 1010 10 16 N/A
8:55 am 08:55 Mostly Cloudy with Light Rain 60 15.3 40 4.3 48 48 WSW 10 17 29.83 1010 10 16 N/A
9:15 am 09:15 Cloudy with Rain 57 13.8 40 4.7 54 54 WSW 10 17 29.83 1010 10 16 N/A
9:35 am 09:35 Partly Cloudy 60 15.3 42 5.7 53 53 W 13 20 29.85 1011 10 16 N/A
9:55 am 09:55 Partly Cloudy 60 15.3 42 5.5 52 52 W 13 20 29.85 1011 10 16 N/A
10:15 am 10:15 Mostly Cloudy 60 15.3 43 5.9 54 54 NNW 15 24 29.85 1011 10 16 N/A
10:35 am 10:35 Partly Cloudy 57 13.8 42 5.6 58 58 N 8 13 29.91 1013 10 16 N/A
10:55 am 10:55 Partly Cloudy 57 13.8 42 5.7 58 58 N 15 24 29.91 1013 10 16 N/A
11:15 am 11:15 Partly Cloudy 55 12.5 39 3.7 55 55 N 16 26 29.94 1014 10 16 N/A
11:35 am 11:35 Sunny 55 12.5 41 5 61 61 N 14 22 29.94 1014 10 16 N/A
11:55 am 11:55 Sunny 53 11.8 40 4.2 60 60 NNW 16 26 29.97 1015 10 16 N/A
12:15 pm 12:15 Partly Cloudy 49 9.6 38 3.1 64 64 N 14 22 30.00 1016 10 16 N/A
12:35 pm 12:35 Cloudy 49 9.6 38 3.5 66 66 NNE 15 24 30.00 1016 10 16 N/A
12:55 pm 12:55 Cloudy 47 8.3 36 2.4 67 67 NNW 17 28 30.03 1017 10 16 N/A
1:15 pm 13:15 Cloudy 47 8.2 36 2.1 66 66 N 13 20 30.03 1017 10 16 N/A
1:35 pm 13:35 Cloudy 44 6.8 34 1.1 67 67 N 9 15 30.03 1017 10 16 N/A
1:55 pm 13:55 Cloudy 43 6.2 33 0.5 67 67 N 9 15 30.06 1018 10 16 N/A
2:15 pm 14:15 Cloudy 44 6.7 33 0.5 65 65 N 9 15 30.06 1018 10 16 N/A
2:35 pm 14:35 Cloudy 43 6.1 32 undefined 65 65 N 12 19 30.06 1018 10 16 N/A
2:55 pm 14:55 Cloudy 44 6.4 32 undefined 64 64 N 9 15 30.06 1018 10 16 N/A
3:15 pm 15:15 Cloudy 45 7 32 undefined 61 61 N 14 22 30.09 1019 10 16 N/A
3:35 pm 15:35 Cloudy 43 6 31 -0.4 64 64 NNE 14 22 30.09 1019 10 16 N/A
3:55 pm 15:55 Cloudy 43 6.1 32 -0.1 65 65 N 13 20 30.09 1019 10 16 N/A
4:15 pm 16:15 Cloudy 42 5.5 31 -0.4 66 66 N 14 22 30.09 1019 10 16 N/A
4:35 pm 16:35 Cloudy 42 5.5 31 -0.3 67 67 N 12 19 30.09 1019 10 16 N/A
4:55 pm 16:55 Cloudy 42 5.5 31 -0.8 64 64 N 10 17 30.12 1020 10 16 N/A
5:15 pm 17:15 Cloudy 41 5 30 -1.1 65 65 N 9 15 30.12 1020 10 16 N/A
5:35 pm 17:35 Cloudy 41 4.8 29 -1.5 64 64 N 12 19 30.12 1020 10 16 N/A
5:55 pm 17:55 Cloudy 40 4.7 29 -1.5 64 64 N 12 19 30.12 1020 10 16 N/A
6:15 pm 18:15 Cloudy 40 4.7 29 -1.7 64 64 N 9 15 30.18 1022 10 16 N/A
6:35 pm 18:35 Cloudy 40 4.7 28 -2 62 62 N 12 19 30.18 1022 10 16 N/A
6:55 pm 18:55 Cloudy 40 4.7 29 -1.8 63 63 N 9 15 30.21 1023 10 16 N/A
7:15 pm 19:15 Cloudy 40 4.5 28 -2 63 63 N 9 15 30.21 1023 10 16 N/A
7:35 pm 19:35 Cloudy 39 4.1 28 -2.2 64 64 N 14 22 30.21 1023 10 16 N/A
7:55 pm 19:55 Cloudy 39 4 28 -2.2 64 64 N 7 11 30.24 1024 10 16 N/A
8:15 pm 20:15 Cloudy 39 4 29 -1.9 66 66 N 10 17 30.24 1024 10 16 N/A
8:35 pm 20:35 Cloudy with Haze 37 2.6 30 -0.9 78 78 NNE 12 19 30.24 1024 5 8 N/A
8:55 pm 20:55 Cloudy with Haze 37 2.6 32 undefined 83 83 NNE 8 13 30.27 1025 4 6 N/A
9:15 pm 21:15 Cloudy with Haze 37 2.6 32 0.1 84 84 NNE 9 15 30.27 1025 5 8 N/A
9:35 pm 21:35 Cloudy 37 2.6 32 undefined 83 83 NNE 7 11 30.27 1025 10 16 N/A
9:55 pm 21:55 Cloudy 36 2 32 -0.2 86 86 NE 12 19 30.30 1026 7 11 N/A
10:15 pm 22:15 Cloudy 35 1.5 30 -1.1 83 83 NNE 9 15 30.30 1026 10 16 N/A
10:35 pm 22:35 Cloudy 35 1.6 30 -0.9 84 84 NNE 7 11 30.33 1027 10 16 N/A
10:55 pm 22:55 Cloudy 35 1.6 30 -1.2 82 82 NE 7 11 30.33 1027 10 16 N/A
11:15 pm 23:15 Cloudy 34 1.3 28 -2.1 78 78 NNE 7 11 30.33 1027 10 16 N/A
11:35 pm 23:35 Cloudy 34 1.2 28 -2.4 77 77 NNE 7 11 30.33 1027 10 16 N/A
11:55 pm 23:55 Cloudy 34 1.2 28 -2.5 77 77 NNE 7 11 30.33 1027 10 16 N/A

Powered by AerisWeather